sat.trackr.live / text

‹ back to catalog

STARLINK-32253

NORAD 60733 · 2024-152P

PAYLOAD ACTIVE UNKNOWN

§ Identity

Operator
Country
US
Launch date
2024-08-28
Launch site
AFETR
Launch vehicle
Mass (kg)
RCS (m²)

Purposes: comms

External: N2YO · Heavens-Above · Gunter

§ Orbital elements

Epoch: 2026-09-21T20:15:29.204064Z

Period
93.85 min
Inclination
53.1609°
Eccentricity
0.0001193
Mean motion
15.34388197 rev/d
Perigee alt
461.9 km
Apogee alt
463.6 km
Semi-major
6,840.9 km
B*
2.2236e-5
RAAN
75.1237°
Arg perigee
80.2417°
Mean anomaly
279.8720°
Rev number
11,686

§ Raw data

STARLINK-322531 60733U 24152P   26264.84408801  .00000375  00000+0  22236-4 0  99992 60733  53.1609  75.1237 0001193  80.2417 279.8720 15.34388197116862

JSON: /api/v1/satellites/60733 · /tle

For live sub-satellite position, see the globe view (requires WebGL).

§ Visibility from observer

Set your observer location to see the next 7 days of passes ≥ 10°. The values pass through the URL so the page stays shareable.

No JS? Fill the form by hand. The geolocation button needs JavaScript.